Regional Weather Roundup
Issued by NWS Portland, ME

Home | Current Version | Previous Version | Text Only | Print | Product List | Glossary On
Versions: 1 2 3 4 5 6 7 8 9 10 11 12 13 14 15 16 17 18 19 20 21 22 23 24 25 26 27 28 29 30 31 32 33 34 35 36 37 38 39 40 41 42 43 44 45 46 47 48 49 50
000
ASUS41 KGYX 020605
RWRGYX
WEATHER ROUNDUP FOR MAINE AND NEW HAMPSHIRE
NATIONAL WEATHER SERVICE GRAY ME
200 AM EDT MON MAY 02 2016

MEZ002-005-006-010-012-015-018-020-021-024-026-027-029-020700-
MAINE

CITY           SKY/WX    TMP DP  RH WIND       PRES   REMARKS
PORTLAND       CLOUDY    44  41  89 SE5       30.14F
6HR MIN TEMP:  44; 6HR MAX TEMP:  46; 6HR PCP:  0.01;

SANFORD        CLOUDY    43  37  81 E3        30.13S
BAR HARBOR     CLOUDY    42  33  70 CALM      30.19S
WISCASSET      CLOUDY    44  39  82 NE3       30.16F
6HR MIN TEMP:  44; 6HR MAX TEMP:  47;

ROCKLAND       CLOUDY    43  39  86 NE3       30.17S
FRYEBURG       CLOUDY    41  39  93 CALM      30.12F
6HR MIN TEMP:  41; 6HR MAX TEMP:  46; 6HR PCP:  0.01;

LEWISTONAUBURN CLOUDY    43  36  75 E5        30.13F
AUGUSTA        CLOUDY    42  34  73 SE5       30.14F
6HR MIN TEMP:  42; 6HR MAX TEMP:  46; 6HR PCP: TRACE;

WATERVILLE     CLOUDY    43  32  65 CALM      30.11F
BANGOR         CLOUDY    45  35  68 E3        30.17F
6HR MIN TEMP:  45; 6HR MAX TEMP:  49;

GREENVILLE       N/A     38  37  97 NE3       30.09F
6HR MIN TEMP:  38; 6HR MAX TEMP:  42; 6HR PCP:  0.05;

MILLINOCKET    CLOUDY    44  36  73 E5        30.16F
6HR MIN TEMP:  43; 6HR MAX TEMP:  52; 6HR PCP: TRACE;

HOULTON        CLOUDY    47  32  56 S8        30.15R
6HR MIN TEMP:  47; 6HR MAX TEMP:  56;

PRESQUE ISLE   CLOUDY    48  31  51 S5        30.14R
6HR MIN TEMP:  48; 6HR MAX TEMP:  58;

FRENCHVILLE    CLOUDY    46  25  43 VRB3      30.10S
6HR MIN TEMP:  46; 6HR MAX TEMP:  55;

CARIBOU        CLOUDY    49  31  49 S7        30.12R
6HR MIN TEMP:  49; 6HR MAX TEMP:  58;

$$

NHZ002-005-008-009-011-012-014-020700-
NEW HAMPSHIRE

CITY           SKY/WX    TMP DP  RH WIND       PRES   REMARKS
PORTSMOUTH     LGT RAIN  43  41  94 E5        30.10F FOG
ROCHESTER      CLOUDY    42  40  92 E5        30.10F FOG
6HR MIN TEMP:  42; 6HR MAX TEMP:  44; 6HR PCP:  0.09;

NASHUA         LGT RAIN  41  40  96 N3        30.11S FOG
MANCHESTER     DRIZZLE   42  39  89 E3        30.09F FOG
6HR MIN TEMP:  42; 6HR MAX TEMP:  46; 6HR PCP:  0.01;

CONCORD        CLOUDY    41  38  89 CALM      30.11F FOG
6HR MIN TEMP:  41; 6HR MAX TEMP:  44; 6HR PCP:  0.04;

LACONIA        CLOUDY    39  36  87 E3        30.11F
PLYMOUTH       CLOUDY    40  39  96 CALM      30.10F
BERLIN         CLOUDY    41  33  73 CALM      30.08S
6HR MIN TEMP:  40; 6HR MAX TEMP:  47; 6HR PCP:  0.06;

WHITEFIELD     CLOUDY    41  31  67 S8        30.06F
6HR MIN TEMP:  41; 6HR MAX TEMP:  48; 6HR PCP:  0.05;

JAFFREY        LGT RAIN  39  37  92 CALM      30.08S FOG
6HR MIN TEMP:  38; 6HR MAX TEMP:  45; 6HR PCP:  0.04;

KEENE          CLOUDY    41  37  87 CALM      30.09F
LEBANON        CLOUDY    42  37  82 CALM      30.07F
6HR MIN TEMP:  42; 6HR MAX TEMP:  46; 6HR PCP:  0.04;

MT WASHINGTON  SNOW      25  25 100 S22         N/A  VSB 1/16WCI  10
6HR MIN TEMP:  19; 6HR MAX TEMP:  27; 6HR PCP:  0.16;

$$

VTZ005-007-008-020700-
VERMONT

CITY           SKY/WX    TMP DP  RH WIND       PRES   REMARKS
ST JOHNSBURY     N/A     41  38  89 MISG      30.06F
MONTPELIER     CLOUDY    40  37  89 S5        30.08F
BURLINGTON     LGT RAIN  45  42  89 SE5       30.03F
$$

MAZ007-012-024-CTZ003-RIZ002-NYZ038-NYZ072-020700-
SOUTHERN NEW ENGLAND AND NY

CITY           SKY/WX    TMP DP  RH WIND       PRES   REMARKS
BOSTON         DRIZZLE   44  43  96 NE6       30.09F FOG
WORCESTER      FOG       38  38 100 NE5       30.06S VSB 1/4
NANTUCKET      CLOUDY    49  47  93 E16       30.02F
PROVIDENCE     CLOUDY    43  42  97 N7        30.08F FOG
HARTFORD       DRIZZLE   42  40  92 N5        30.07F FOG
ALBANY         DRIZZLE   44  39  82 S7        30.04F
NEW YORK CITY  CLOUDY    46  43  89 NE7       30.04F
$$

ANZ081-ANZ082-ANZ150-NHZ014-MEZ023>029-020700-
COASTAL MARINE OBSERVATIONS

STATION/POSITION TIME  TEMP    WIND        PRES    WAVE
                       AIR SEA DIR/SP/G            HT/PER
                 (UTC) (F)     (DEG/KT/KT) (MB)    (FT/S)
MOUNT DESERT ROC 0600   44     120/  8/  9 1021.9F
MATINICUS ROCK   0500   44     130/  8/  9 1021.4F
ISLE OF SHOALS   0500   44     120/  9/  9 1019.6F
CASHES LEDGE BUO 0550   45 45  130/  8/ 10 1020.7F   5/10
GEORGES BANK BUO 0450   50 47              1020.2    6/ 9
$$

.............KEY..............
   WCI - WIND CHILL
   TC  - TEMPERATURE IN CELSIUS
   VSB - VISIBILITY IN MILES
   HX  - HEAT INDEX
   FAIR- INDICATES FEW OR NO CLOUDS BELOW 12,000 FT, WITH NO
         SIGNIFICANT WEATHER AND/OR OBSTRUCTIONS TO VISIBILITY.






USA.gov is the U.S. government's official web portal to all federal, state and local government web resources and services.